TimeCDT,TemperatureF,Dew PointF,Humidity,Sea Level PressureIn,VisibilityMPH,Wind Direction,Wind SpeedMPH,Gust SpeedMPH,PrecipitationIn,Events,Conditions,WindDirDegrees,DateUTC
12:00 AM,80.6,62.6,54,29.99,10.0,SE,3.5,-,N/A,,Clear,130,2013-09-08 05:00:00
12:38 AM,78.8,62.6,57,29.99,10.0,ESE,4.6,-,N/A,,Clear,120,2013-09-08 05:38:00
1:18 AM,78.8,62.6,57,29.99,10.0,SE,3.5,-,N/A,,Clear,140,2013-09-08 06:18:00
1:38 AM,78.8,62.6,57,29.99,10.0,ESE,3.5,-,N/A,,Clear,110,2013-09-08 06:38:00
1:58 AM,78.8,62.6,57,29.99,10.0,ESE,6.9,-,N/A,,Clear,110,2013-09-08 06:58:00
2:19 AM,77.0,62.6,61,29.99,10.0,ESE,4.6,-,N/A,,Clear,110,2013-09-08 07:19:00
2:40 AM,77.0,62.6,61,29.99,10.0,East,4.6,-,N/A,,Clear,100,2013-09-08 07:40:00
2:59 AM,75.2,62.6,65,30.00,10.0,ESE,6.9,-,N/A,,Clear,110,2013-09-08 07:59:00
3:20 AM,75.2,62.6,65,29.99,10.0,East,4.6,-,N/A,,Clear,100,2013-09-08 08:20:00
3:39 AM,77.0,62.6,61,29.99,10.0,ESE,4.6,-,N/A,,Clear,120,2013-09-08 08:39:00
3:59 AM,75.2,62.6,65,29.99,-9999.0,SE,3.5,-,N/A,,Clear,130,2013-09-08 08:59:00
4:19 AM,75.2,62.6,65,29.99,10.0,ESE,4.6,-,N/A,,Clear,120,2013-09-08 09:19:00
4:39 AM,75.2,62.6,65,29.99,10.0,ESE,4.6,-,N/A,,Clear,120,2013-09-08 09:39:00
4:59 AM,73.4,60.8,65,29.99,10.0,ESE,4.6,-,N/A,,Clear,110,2013-09-08 09:59:00
5:19 AM,73.4,60.8,65,29.99,10.0,ESE,5.8,-,N/A,,Clear,120,2013-09-08 10:19:00
5:39 AM,73.4,60.8,65,29.99,10.0,ESE,5.8,-,N/A,,Clear,110,2013-09-08 10:39:00
5:59 AM,73.4,60.8,65,29.99,10.0,ESE,5.8,-,N/A,,Clear,110,2013-09-08 10:59:00
6:19 AM,71.6,60.8,69,30.00,10.0,ESE,4.6,-,N/A,,Clear,120,2013-09-08 11:19:00
6:39 AM,71.6,60.8,69,30.00,10.0,ESE,5.8,-,N/A,,Clear,120,2013-09-08 11:39:00
7:19 AM,71.6,60.8,69,30.01,10.0,ESE,5.8,-,N/A,,Clear,110,2013-09-08 12:19:00
7:39 AM,71.6,62.6,73,30.01,10.0,ESE,5.8,-,N/A,,Clear,110,2013-09-08 12:39:00
7:59 AM,73.4,62.6,69,30.02,10.0,ESE,5.8,-,N/A,,Clear,110,2013-09-08 12:59:00
8:19 AM,73.4,62.6,69,30.02,-9999.0,ESE,3.5,-,N/A,,Clear,120,2013-09-08 13:19:00
8:39 AM,75.2,62.6,65,30.02,10.0,SE,4.6,-,N/A,,Clear,130,2013-09-08 13:39:00
8:59 AM,78.8,62.6,57,30.01,10.0,SSE,6.9,-,N/A,,Clear,160,2013-09-08 13:59:00
9:19 AM,80.6,60.8,51,30.01,10.0,South,4.6,-,N/A,,Clear,190,2013-09-08 14:19:00
9:39 AM,82.4,60.8,48,30.02,10.0,SSE,5.8,-,N/A,,Clear,160,2013-09-08 14:39:00
9:59 AM,84.2,60.8,45,30.02,10.0,SSE,6.9,-,N/A,,Clear,160,2013-09-08 14:59:00
10:19 AM,84.2,62.6,48,30.02,10.0,South,6.9,-,N/A,,Clear,170,2013-09-08 15:19:00
10:42 AM,87.8,62.6,43,30.01,-9999.0,South,5.8,-,N/A,,Clear,170,2013-09-08 15:42:00
11:02 AM,89.6,60.8,38,30.01,10.0,South,8.1,-,N/A,,Clear,190,2013-09-08 16:02:00
11:19 AM,91.4,60.8,36,30.01,10.0,SSE,8.1,-,N/A,,Clear,160,2013-09-08 16:19:00
11:39 AM,91.4,59.0,34,30.01,-9999.0,South,10.4,-,N/A,,Clear,180,2013-09-08 16:39:00
12:19 PM,93.2,57.2,30,30.00,10.0,South,11.5,-,N/A,,Clear,180,2013-09-08 17:19:00
12:39 PM,93.2,59.0,32,29.99,10.0,SSE,6.9,19.6,N/A,,Clear,160,2013-09-08 17:39:00
12:59 PM,95.0,57.2,28,29.99,10.0,South,11.5,17.3,N/A,,Clear,190,2013-09-08 17:59:00
1:19 PM,96.8,55.4,25,29.98,10.0,SSE,17.3,21.9,N/A,,Clear,150,2013-09-08 18:19:00
1:59 PM,96.8,55.4,25,29.97,10.0,South,8.1,18.4,N/A,,Clear,190,2013-09-08 18:59:00
2:39 PM,98.6,51.8,21,29.96,10.0,SE,10.4,16.1,N/A,,Clear,140,2013-09-08 19:39:00
2:59 PM,98.6,51.8,21,29.95,10.0,SSE,15.0,25.3,N/A,,Clear,160,2013-09-08 19:59:00
3:20 PM,98.6,51.8,21,29.94,-9999.0,SSE,12.7,17.3,N/A,,Clear,150,2013-09-08 20:20:00
3:39 PM,98.6,51.8,21,29.93,10.0,South,10.4,19.6,N/A,,Clear,170,2013-09-08 20:39:00
4:19 PM,98.6,51.8,21,29.92,10.0,SE,13.8,19.6,N/A,,Clear,130,2013-09-08 21:19:00
4:39 PM,98.6,51.8,21,29.92,10.0,South,10.4,23.0,N/A,,Clear,180,2013-09-08 21:39:00
5:01 PM,98.6,51.8,21,29.91,10.0,South,12.7,21.9,N/A,,Clear,170,2013-09-08 22:01:00
5:19 PM,98.6,51.8,21,29.90,10.0,SSE,12.7,16.1,N/A,,Clear,150,2013-09-08 22:19:00
5:59 PM,98.6,50.0,19,29.89,10.0,SE,12.7,-,N/A,,Clear,140,2013-09-08 22:59:00
6:19 PM,96.8,51.8,22,29.89,10.0,SE,16.1,-,N/A,,Clear,140,2013-09-08 23:19:00
6:41 PM,96.8,50.0,20,29.89,10.0,SSE,15.0,19.6,N/A,,Clear,150,2013-09-08 23:41:00
7:00 PM,96.8,48.2,19,29.89,10.0,SSE,13.8,-,N/A,,Clear,150,2013-09-09 00:00:00
7:19 PM,95.0,50.0,22,29.90,10.0,SE,11.5,-,N/A,,Clear,140,2013-09-09 00:19:00
7:39 PM,93.2,50.0,23,29.90,10.0,SE,11.5,-,N/A,,Clear,140,2013-09-09 00:39:00
7:59 PM,91.4,51.8,26,29.90,-9999.0,SSE,8.1,-,N/A,,Clear,150,2013-09-09 00:59:00
8:19 PM,89.6,51.8,27,29.91,10.0,SSE,9.2,-,N/A,,Clear,150,2013-09-09 01:19:00
8:39 PM,89.6,51.8,27,29.91,10.0,SSE,10.4,-,N/A,,Clear,150,2013-09-09 01:39:00
9:01 PM,87.8,51.8,29,29.92,10.0,SSE,10.4,-,N/A,,Clear,150,2013-09-09 02:01:00
9:22 PM,87.8,51.8,29,29.93,10.0,SSE,9.2,-,N/A,,Clear,150,2013-09-09 02:22:00
9:39 PM,86.0,51.8,31,29.93,10.0,SSE,10.4,-,N/A,,Clear,150,2013-09-09 02:39:00
9:59 PM,86.0,51.8,31,29.94,-9999.0,SSE,10.4,-,N/A,,Clear,150,2013-09-09 02:59:00
10:19 PM,84.2,53.6,35,29.94,10.0,SE,11.5,-,N/A,,Clear,140,2013-09-09 03:19:00
10:41 PM,84.2,53.6,35,29.95,10.0,SSE,10.4,-,N/A,,Clear,150,2013-09-09 03:41:00
10:59 PM,82.4,55.4,39,29.95,10.0,SSE,10.4,-,N/A,,Clear,150,2013-09-09 03:59:00
11:39 PM,82.4,55.4,39,29.96,-9999.0,SSE,10.4,-,N/A,,Clear,150,2013-09-09 04:39:00
11:59 PM,82.4,57.2,42,29.96,-9999.0,SSE,11.5,-,N/A,,Clear,150,2013-09-09 04:59:00